1998-067VT

Last updated on Fri Jan 05 2024 00:02:07 GMT+0000 (Coordinated Universal Time)

1 57315U 98067VT 24004.29798840 .05821333 12224-4 96595-3 0 9995 2 57315 51.6155 28.2012 0002386 38.4483 321.6710 16.32556937 28546

Satellite not in orbit